PROFILE

 METAR AND TAF INFORMATION
ADDS - METARS form results

(1505 UTC 22 January 2019)
http://aviationweather.gov/metar/data/
 
SBRF 221500Z 14007KT 080V180 9999 FEW013 SCT018 BKN060 28/24 Q1 014
TAF SBRF 221000Z 2212/2312 13013KT 8000 SCT020 TX30/2214Z TN26/2308Z BECMG 2222/2223 11008KT RMK PEU 

 AIRPORT MAP

 RUNWAY INFORMATION
Runway 18 Runway length 9865 ft Runway width 148 ft
Runway elevation 23 ft Runway displaced threshold 0 ft Runway heading 162
Runway 36 Runway length 9865 ft Runway width 148 ft
Runway elevation 32 ft Runway displaced threshold 0 ft Runway heading 342

 AIRPORT FREQUENCIES
Type APP Name RECIFE APP Frequency 119.1 MHZ
Type ATIS Name ATIS Frequency 127.65 MHZ
Type GND Name GND Frequency 121.85 MHZ
Type OPS Name RECIFE OPS Frequency 122.5 MHZ
Type TWR Name RECIFE TWR Frequency 122.8 MHZ

 AIRPORT NEAR NAVIGATION AIDS
Type VOR-DME Name Recife Frequency 116900 KHZ